TimeAKDT,TemperatureF,Dew PointF,Humidity,Sea Level PressureIn,VisibilityMPH,Wind Direction,Wind SpeedMPH,Gust SpeedMPH,PrecipitationIn,Events,Conditions,WindDirDegrees,DateUTC
12:53 AM,48.9,48.0,97,30.01,10.0,East,3.5,-,0.01,Rain,Light Rain,90,2013-07-05 08:53:00
1:53 AM,48.0,46.9,96,30.02,10.0,Calm,Calm,-,0.00,,Partly Cloudy,0,2013-07-05 09:53:00
2:53 AM,46.0,46.0,100,30.03,4.0,Calm,Calm,-,N/A,,Partly Cloudy,0,2013-07-05 10:53:00
3:53 AM,46.9,46.9,100,30.03,10.0,Calm,Calm,-,0.00,,Scattered Clouds,0,2013-07-05 11:53:00
4:51 AM,46.4,44.6,93,30.01,2.5,Calm,Calm,-,N/A,,Overcast,0,2013-07-05 12:51:00
4:53 AM,46.0,46.0,100,30.04,4.0,Calm,Calm,-,N/A,,Overcast,0,2013-07-05 12:53:00
5:53 AM,48.0,46.9,96,30.04,10.0,Calm,Calm,-,N/A,,Mostly Cloudy,0,2013-07-05 13:53:00
6:53 AM,48.9,48.0,97,30.05,10.0,Calm,Calm,-,N/A,,Overcast,0,2013-07-05 14:53:00
7:53 AM,50.0,48.0,93,30.05,10.0,Calm,Calm,-,N/A,,Overcast,0,2013-07-05 15:53:00
8:53 AM,51.1,48.0,89,30.05,10.0,Calm,Calm,-,N/A,,Overcast,0,2013-07-05 16:53:00
9:53 AM,54.0,48.0,80,30.05,10.0,Calm,Calm,-,N/A,,Overcast,0,2013-07-05 17:53:00
10:53 AM,55.9,46.9,72,30.04,10.0,Calm,Calm,-,N/A,,Overcast,0,2013-07-05 18:53:00
11:53 AM,57.9,46.0,65,30.03,10.0,Calm,Calm,-,N/A,,Overcast,0,2013-07-05 19:53:00
12:53 PM,59.0,44.1,58,30.02,10.0,Calm,Calm,-,N/A,,Scattered Clouds,0,2013-07-05 20:53:00
1:53 PM,61.0,44.1,54,30.01,10.0,Variable,3.5,-,N/A,,Mostly Cloudy,0,2013-07-05 21:53:00
2:53 PM,64.0,44.1,48,29.99,10.0,Variable,4.6,-,N/A,,Clear,0,2013-07-05 22:53:00
3:53 PM,66.0,44.1,45,29.98,10.0,WSW,3.5,-,N/A,,Clear,250,2013-07-05 23:53:00
4:53 PM,64.9,42.1,43,29.97,10.0,Calm,Calm,-,N/A,,Clear,0,2013-07-06 00:53:00
5:53 PM,66.0,45.0,47,29.95,10.0,East,6.9,-,N/A,,Partly Cloudy,80,2013-07-06 01:53:00
6:53 PM,64.0,45.0,50,29.95,10.0,Variable,6.9,-,N/A,,Mostly Cloudy,0,2013-07-06 02:53:00
7:53 PM,63.0,46.0,54,29.94,10.0,East,9.2,-,N/A,,Scattered Clouds,100,2013-07-06 03:53:00
8:53 PM,63.0,45.0,52,29.94,10.0,East,6.9,-,N/A,,Mostly Cloudy,90,2013-07-06 04:53:00
9:53 PM,63.0,45.0,52,29.93,10.0,Calm,Calm,-,N/A,,Partly Cloudy,0,2013-07-06 05:53:00
10:53 PM,59.0,46.0,62,29.93,10.0,ENE,4.6,-,N/A,,Partly Cloudy,60,2013-07-06 06:53:00
11:53 PM,55.0,45.0,69,29.93,10.0,ENE,4.6,-,N/A,,Clear,70,2013-07-06 07:53:00